{"data":{"norad_id":52998,"intl_designator":"2022-076N","name":"STARLINK-4254","alt_names":[],"object_type":"PAYLOAD","status":"ACTIVE","operator":null,"country":"US","launch_date":"2022-07-07","launch_site_code":"AFETR","launch_vehicle":null,"mission":null,"orbit_class":"UNKNOWN","rcs_meters":null,"size_class":null,"mass_kg":null,"dimensions":null,"purposes":["comms"],"wikipedia_slug":null,"has_3d_model":false,"image_url":null,"decayed_at":null,"tle_current":{"epoch":"2026-05-25T04:32:35.430144Z","epoch_age_seconds":52675,"freshness":"FRESH","line1":"1 52998U 22076N   26145.18929896 -.00000080  00000+0  13091-4 0  9996","line2":"2 52998  53.2140 110.6112 0001329  61.8394 298.2732 15.08839229214397","mean_motion":15.08839229,"eccentricity":0.0001329,"inclination_deg":53.214,"raan_deg":110.6112,"arg_perigee_deg":61.8394,"mean_anomaly_deg":298.2732,"bstar":1.3091e-5,"rev_number":21439,"period_min":95.437603445291,"perigee_km":538.82635898677,"apogee_km":540.66513222056,"semimajor_km":6917.8827456037,"source":"CELESTRAK","updated_at":"2026-05-25T13:38:17.275637Z"}}}